Regional Weather Roundup
Issued by NWS Green Bay, WI

Home | Current Version | Previous Version | Text Only | Print | Product List | Glossary On
Versions: 1 2 3 4 5 6 7 8 9 10 11 12 13 14 15 16 17 18 19 20 21 22 23 24 25 26 27 28 29 30 31 32 33 34 35 36 37 38 39 40 41 42 43 44 45 46 47 48 49 50
000
ASUS43 KGRB 210859
RWRGRB

NORTH-CENTRAL AND NORTHEAST WISCONSIN REGIONAL WEATHER ROUNDUP
NATIONAL WEATHER SERVICE GREEN BAY WI
400 AM CDT SUN SEP 21 2014

WIZ005-009-010>012-018-019-211000-
NORTH CENTRAL WISCONSIN

CITY           SKY/WX    TMP DP  RH WIND       PRES   REMARKS
IRONWOOD       CLOUDY    48  48 100 N9        29.75R
MANITOWISH WTR NOT AVBL
ARBOR VITAE    NOT AVBL
EAGLE RIVER    NOT AVBL
LAND O LAKES   NOT AVBL
RHINELANDER    RAIN      51  50  96 VRB3      29.71R FOG
PHILLIPS       DRIZZLE   51  51  98 NW5       29.73R
ANTIGO         NOT AVBL
TOMAHAWK       NOT AVBL
MERRILL        NOT AVBL
$$

WIZ013-073-211000-
NORTHEAST WISCONSIN

CITY           SKY/WX    TMP DP  RH WIND       PRES   REMARKS
IRON MOUNTAIN  CLOUDY    54  52  93 N6        29.67S
MARINETTE      CLOUDY    55  52  88 NE6       29.64S
$$

WIZ017-030-035>037-045-211000-
CENTRAL WISCONSIN

CITY           SKY/WX    TMP DP  RH WIND       PRES   REMARKS
MEDFORD        NOT AVBL
WAUSAU         CLOUDY    54  52  93 W13       29.68R
MOSINEE        CLOUDY    52  52 100 W13       29.70R
MARSHFIELD     LGT RAIN  53  50  89 NW20G25   29.72R FOG
WISC RAPIDS    LGT RAIN  54  51  90 W13G20    29.73R FOG
STEVENS POINT  NOT AVBL
WAUPACA        NOT AVBL
SHAWANO        LGT RAIN  57  54  91 W3        29.66S
CLINTONVILLE   CLOUDY    55  54  94 W7        29.66S
$$

WIZ038-039-048-051-211000-
FOX VALLEY

CITY           SKY/WX    TMP DP  RH WIND       PRES   REMARKS
NWS GREEN BAY  CLOUDY    56  55  97 W8        29.65S
APPLETON       NOT AVBL
OSHKOSH        CLOUDY    56  53  90 W9        29.68R
FOND DU LAC    MOCLDY    56  51  84 W9        29.70S
$$

WIZ022-050-052-211000-
EAST CENTRAL WISCONSIN

CITY           SKY/WX    TMP DP  RH WIND       PRES   REMARKS
STURGEON BAY   CLOUDY    55  52  88 NE5       29.64S
MANITOWOC      MOCLDY    57  55  94 W12       29.65R
SHEBOYGAN      MOCLDY    57  53  86 W12       29.67S
$$

LMZ563-521-522-541>543-211000-
LAKESHORE

STATION/POSITION TIME  TEMP    WIND        PRES    VSBY  WAVE
                       AIR SEA DIR/SP/G                  HT/PER
                 (UTC) (F)     (DEG/KT/KT) (MB)    (MI)  (FT/S)
SHEBOYGAN LKSHOR 0800   59 54  280/ 16/ 19 1004.5R
KEWAUNEE LKSHORE 0800   56     340/  2/  5 1002.7R
NORTHPORT PIER   0800   56     350/  6/ 10 1003.7F
N MID LAKE BUOY  0800   57 58   20/ 10/ 14 1003.2S         2/ 3
S GREEN BAY BUOY 0800   57     VRB  8/ 10  1004.7S
SISTER BAY LKSHO 0800           10/  4/  7   N/A
CHAMBERS ISLAND  0800   56     350/ 16/ 17 1004.1R
MENOMINEE LKSHOR 0800   56     340/  7/  8 1004.5F
$$


USA.gov is the U.S. government's official web portal to all federal, state and local government web resources and services.